CW0214 Weather Reports


Display with metric or nautical units.
time (UTC)temp
F
wind
direction
speed
MPH
gust
MPH
rain 1hr
in
rain 24hr
in
rain mn
in
humidity
%
barometer
mb
20260502195408 64 125 2.0 7.0 0.00 0.00 0.00 83 1015.9
20260502194904 64 113 1.0 5.0 0.00 0.00 0.00 83 1015.9
20260502193904 64 88 0.0 5.0 0.00 0.00 0.00 82 1015.8
20260502193405 64 61 2.0 5.0 0.00 0.00 0.00 81 1015.7
20260502192408 65 102 0.0 3.0 0.00 0.00 0.00 78 1015.6
20260502191907 65 105 1.0 3.0 0.00 0.00 0.00 77 1015.6
20260502191407 66 108 0.0 3.0 0.00 0.00 0.00 76 1015.4
20260502190906 66 108 1.0 3.0 0.00 0.00 0.00 75 1015.4
20260502190407 66 108 0.0 1.0 0.00 0.00 0.00 75 1015.5
20260502185906 66 108 0.0 3.0 0.00 0.00 0.00 75 1015.5
20260502184906 66 108 0.0 3.0 0.00 0.00 0.00 75 1015.5
20260502184407 66 108 0.0 1.0 0.00 0.00 0.00 74 1015.4
20260502183906 66 108 0.0 6.0 0.00 0.00 0.00 74 1015.5
20260502183407 66 108 0.0 3.0 0.00 0.00 0.00 74 1015.5
20260502182907 66 108 2.0 3.0 0.00 0.00 0.00 74 1015.5
20260502181907 66 119 1.0 5.0 0.00 0.00 0.00 73 1015.6
20260502181407 66 128 2.0 6.0 0.00 0.00 0.00 73 1015.7
20260502180907 67 71 2.0 7.0 0.00 0.00 0.00 73 1015.6
20260502163912 67 84 1.0 8.0 0.00 0.00 0.00 71 1016.2
20260502162407 67 133 2.0 6.0 0.00 0.00 0.00 72 1016.3
20260502161908 67 142 5.0 9.0 0.00 0.00 0.00 73 1016.4
20260502161407 66 152 3.0 8.0 0.00 0.00 0.00 75 1016.3
20260502160907 66 98 1.0 6.0 0.00 0.00 0.00 78 1016.4
20260502160407 66 124 1.0 8.0 0.00 0.00 0.00 77 1016.4
20260502151907 64 135 5.0 9.0 0.00 0.00 0.00 82 1017.0
20260502151406 65 124 5.0 7.0 0.00 0.00 0.00 79 1017.0
20260502150906 66 120 3.0 9.0 0.00 0.00 0.00 77 1017.1
20260502150406 66 126 5.0 8.0 0.00 0.00 0.00 75 1017.1
20260502130407 67 82 6.0 12.0 0.00 0.00 0.00 66 1017.8
20260502123407 68 86 3.0 12.0 0.00 0.00 0.00 60 1017.7
20260502122906 68 93 6.0 10.0 0.00 0.00 0.00 59 1017.8
20260502121407 69 116 5.0 10.0 0.00 0.00 0.00 57 1017.8
20260502120906 69 113 5.0 12.0 0.00 0.00 0.00 57 1017.8
20260502120407 68 91 3.0 7.0 0.00 0.00 0.00 58 1017.9
20260502115406 69 94 3.0 7.0 0.00 0.00 0.00 56 1018.0
20260502113406 69 61 3.0 9.0 0.00 0.00 0.00 54 1018.2
20260502112906 69 93 2.0 6.0 0.00 0.00 0.00 56 1018.1
20260502112406 69 127 4.0 7.0 0.00 0.00 0.00 55 1018.1
20260502111906 68 46 0.0 1.0 0.00 0.00 0.00 55 1018.1
20260502111406 69 45 6.0 10.0 0.00 0.00 0.00 54 1018.2
20260502110906 69 110 7.0 10.0 0.00 0.00 0.00 55 1018.3
20260502110406 68 107 3.0 9.0 0.00 0.00 0.00 57 1018.3
20260502105906 68 53 2.0 6.0 0.00 0.00 0.00 57 1018.3
20260502105406 68 47 3.0 8.0 0.00 0.00 0.00 58 1018.3
20260502104907 67 55 5.0 9.0 0.00 0.00 0.00 58 1018.2
20260502104407 67 40 1.0 7.0 0.00 0.00 0.00 57 1018.3
20260502103906 67 83 3.0 8.0 0.00 0.00 0.00 58 1018.3
20260502103406 67 49 1.0 6.0 0.00 0.00 0.00 57 1018.3
20260502102906 68 91 3.0 9.0 0.00 0.00 0.00 57 1018.4
20260502102407 67 86 5.0 8.0 0.00 0.00 0.00 58 1018.3
20260502101906 67 79 5.0 8.0 0.00 0.00 0.00 57 1018.4
20260502101406 67 63 1.0 9.0 0.00 0.00 0.00 58 1018.3
20260502100907 67 125 3.0 8.0 0.00 0.00 0.00 59 1018.3
20260502100406 66 288 0.0 1.0 0.00 0.00 0.00 63 1018.3
20260502090906 63 107 1.0 3.0 0.00 0.00 0.00 73 1018.4
20260502071406 57 325 0.0 1.0 0.00 0.00 0.00 86 1018.3
20260502070906 57 325 0.0 0.0 0.00 0.00 0.00 86 1018.4
20260502070406 57 325 0.0 0.0 0.00 0.00 0.00 86 1018.3
20260502065907 57 325 0.0 2.0 0.00 0.00 0.00 87 1018.3
20260502065405 56 325 0.0 0.0 0.00 0.00 0.00 88 1018.2
20260502064907 56 325 0.0 0.0 0.00 0.00 0.00 88 1018.2
20260502064406 56 325 0.0 0.0 0.00 0.00 0.00 88 1018.2
20260502063906 56 325 0.0 0.0 0.00 0.00 0.00 87 1018.3
20260502062906 56 325 0.0 0.0 0.00 0.00 0.00 87 1018.1
20260502062406 56 325 0.0 3.0 0.00 0.00 0.00 86 1018.1
20260502061406 56 324 0.0 2.0 0.00 0.00 0.00 86 1017.9
20260502060406 56 324 0.0 0.0 0.00 0.00 0.00 86 1017.6
20260502055406 56 324 0.0 1.0 0.00 0.00 0.00 87 1017.7
20260502054906 56 324 0.0 0.0 0.00 0.00 0.00 87 1017.6
20260502054405 56 324 0.0 0.0 0.00 0.00 0.00 88 1017.6
20260502053906 56 324 0.0 0.0 0.00 0.00 0.00 88 1017.6
20260502053406 56 324 0.0 0.0 0.00 0.00 0.00 88 1017.7
20260502052906 56 324 0.0 0.0 0.00 0.00 0.00 88 1017.8
20260502052406 56 324 0.0 0.0 0.00 0.00 0.00 88 1017.9
20260502050906 57 324 2.0 3.0 0.00 0.00 0.00 85 1017.7
20260502045406 57 244 3.0 6.0 0.00 0.00 0.00 84 1017.6
20260502044906 57 284 2.0 3.0 0.00 0.00 0.00 83 1017.7
20260502044406 57 199 0.0 0.0 0.00 0.00 0.00 84 1017.9
20260502043906 57 199 0.0 2.0 0.00 0.00 0.00 84 1018.0
20260502043406 57 199 2.0 3.0 0.00 0.00 0.00 83 1017.9
20260502042906 57 195 2.0 5.0 0.00 0.00 0.00 83 1017.9
20260502040906 57 92 1.0 3.0 0.00 0.00 0.00 84 1018.3
20260502040406 57 92 0.0 1.0 0.00 0.00 0.00 84 1018.1
20260502035907 57 92 0.0 0.0 0.00 0.00 0.00 85 1018.1
20260502035408 57 92 0.0 0.0 0.00 0.00 0.00 85 1018.1
20260502034906 57 92 0.0 0.0 0.00 0.00 0.00 84 1018.2
20260502034406 57 92 0.0 0.0 0.00 0.00 0.00 84 1018.3
20260502033406 57 26 3.0 6.0 0.00 0.00 0.00 83 1018.3
20260502032906 57 144 1.0 5.0 0.00 0.00 0.00 83 1018.1
20260502032407 57 144 1.0 3.0 0.00 0.00 0.00 83 1018.0
20260502030406 58 144 1.0 3.0 0.00 0.00 0.00 82 1018.2
20260502024406 58 36 0.0 0.0 0.00 0.00 0.00 81 1018.1
20260502023906 58 36 2.0 6.0 0.00 0.00 0.00 81 1018.4
20260502023406 58 102 2.0 8.0 0.00 0.00 0.00 81 1018.2
20260502022406 58 45 0.0 5.0 0.00 0.00 0.00 81 1018.2
20260502021905 58 40 0.0 5.0 0.00 0.00 0.00 80 1018.5
20260502021406 58 140 0.0 0.0 0.00 0.00 0.00 80 1018.5
20260502020406 59 140 0.0 3.0 0.00 0.00 0.00 79 1018.2
20260502015906 59 140 0.0 0.0 0.00 0.00 0.00 80 1018.3
20260502015406 58 140 2.0 5.0 0.00 0.00 0.00 80 1018.3
20260502014906 58 140 0.0 7.0 0.00 0.00 0.00 81 1018.5
20260502013906 58 101 1.0 5.0 0.00 0.00 0.00 81 1018.7
20260502013406 58 101 0.0 6.0 0.00 0.00 0.00 80 1018.8
20260502012906 59 101 1.0 5.0 0.00 0.00 0.00 80 1018.8
20260502012406 59 101 1.0 5.0 0.00 0.00 0.00 80 1018.7
20260502011906 59 101 0.0 2.0 0.00 0.00 0.00 80 1018.6
20260502011406 59 101 2.0 5.0 0.00 0.00 0.00 80 1018.8
20260502010906 59 103 3.0 6.0 0.00 0.00 0.00 80 1018.8
20260502010406 59 126 0.0 7.0 0.00 0.00 0.00 80 1018.8
20260502005406 59 92 1.0 6.0 0.00 0.00 0.00 80 1018.9
20260502003906 59 98 2.0 6.0 0.00 0.00 0.00 79 1019.2
20260502002905 59 107 0.0 2.0 0.00 0.00 0.00 79 1019.1
20260502001906 59 123 0.0 0.0 0.00 0.00 0.00 79 1019.1
20260502001405 59 123 1.0 3.0 0.00 0.00 0.00 79 1019.4
20260502000906 60 80 3.0 6.0 0.00 0.00 0.00 79 1019.5
20260502000406 59 84 0.0 2.0 0.00 0.00 0.00 78 1019.4
20260501235905 59 68 0.0 0.0 0.00 0.00 0.00 78 1019.2
20260501235406 60 68 0.0 2.0 0.00 0.00 0.00 78 1019.6
20260501234906 60 68 2.0 5.0 0.00 0.00 0.00 77 1019.5
20260501233906 60 136 0.0 0.0 0.00 0.00 0.00 76 1019.5
20260501232906 60 136 0.0 0.0 0.00 0.00 0.00 75 1019.6
20260501232406 60 136 0.0 0.0 0.00 0.00 0.00 74 1019.5
20260501231906 60 136 0.0 0.0 0.00 0.00 0.00 73 1019.5
20260501230406 61 136 0.0 0.0 0.00 0.00 0.00 72 1019.4
20260501225906 61 136 1.0 5.0 0.00 0.00 0.00 72 1019.5
20260501225406 61 136 0.0 3.0 0.00 0.00 0.00 72 1019.5
20260501224906 61 136 2.0 6.0 0.00 0.00 0.00 71 1019.6
20260501224406 61 136 1.0 5.0 0.00 0.00 0.00 71 1019.5
20260501223906 61 121 1.0 5.0 0.00 0.00 0.00 71 1019.6
20260501223406 61 63 1.0 8.0 0.00 0.00 0.00 71 1019.6
20260501222906 61 132 3.0 9.0 0.00 0.00 0.00 70 1019.6
20260501221906 61 161 0.0 5.0 0.00 0.00 0.00 69 1019.4
20260501221406 61 130 1.0 7.0 0.00 0.00 0.00 69 1019.6
20260501220907 61 122 3.0 8.0 0.00 0.00 0.00 69 1019.6
20260501220406 61 129 3.0 6.0 0.00 0.00 0.00 68 1019.4
20260501215906 61 127 0.0 0.0 0.00 0.00 0.00 68 1019.4
20260501215405 62 100 0.0 5.0 0.00 0.00 0.00 68 1019.3
20260501214406 62 130 0.0 6.0 0.00 0.00 0.00 69 1019.4
20260501213906 62 91 3.0 7.0 0.00 0.00 0.00 69 1019.5
20260501213406 62 153 1.0 7.0 0.00 0.00 0.00 69 1019.3
20260501212906 62 90 1.0 9.0 0.00 0.00 0.00 69 1019.5
20260501212406 62 104 2.0 6.0 0.00 0.00 0.00 69 1019.3
20260501211906 62 161 0.0 9.0 0.00 0.00 0.00 69 1019.3
20260501211406 62 176 2.0 6.0 0.00 0.00 0.00 69 1019.4
20260501210906 62 61 1.0 8.0 0.00 0.00 0.00 69 1019.5
20260501205906 62 155 3.0 10.0 0.00 0.00 0.00 68 1019.4
20260501205406 63 140 1.0 7.0 0.00 0.00 0.00 67 1019.5
20260501203906 63 133 1.0 9.0 0.00 0.00 0.00 66 1019.3
20260501203405 63 167 2.0 6.0 0.00 0.00 0.00 65 1019.3
20260501202905 63 148 3.0 10.0 0.00 0.00 0.00 64 1019.2
20260501202406 63 167 2.0 8.0 0.00 0.00 0.00 64 1019.1
20260501201905 64 153 4.0 10.0 0.00 0.00 0.00 64 1019.1
20260501201406 64 145 5.0 9.0 0.00 0.00 0.00 64 1019.1
20260501200906 64 144 6.0 13.0 0.00 0.00 0.00 64 1019.1